Tracking 35274 objects as of 10-Sep-2026
HD Live streaming from Space Station
objects crossing your sky now

STARLINK-2113


STARLINK-2113 is no longer on orbit
STARLINK-2113 is classified as:


NORAD ID: 47392
Int'l Code: 2021-005AV
Launch date: January 20, 2021
Source: United States (US)
Launch site: AIR FORCE EASTERN TEST RANGE (AFETR)
Decay date: 2026-07-27
Your satellite tracking list
Your tracking list is empty




NASA's NSSDC Master Catalog

Two Line Element Set (TLE):
1 47392U 21005AV  26207.90918302  .07996520  12401-4  60991-3 0  9990
2 47392  53.0241  39.0577 0008131 293.5606  66.4585 16.39511036305666
Source of the keplerian elements: AFSPC